No;Time;Interval(mi);Indoor Humidity(%);Indoor Temperature(�C);Outdoor Humidity(%);Outdoor Temperature(�C);Absolute Pressure(Hpa);Wind(km/h);Gust(km/h);Direction;Relative Pressure(Hpa);Dewpoint(�C);Windchill(�C);Hour Rainfall(mm);24 hour Rainfall(mm);Week Rainfall(mm);Month Rainfall(mm);Total Rainfall(mm);Wind Level(bft);Gust Level(bft)
1;01-11-2012 00:11;30;48;21.1;87;8.5;984.7;1.1;5.0;NW;987.9;6.5;8.5;0.0;0.0;1.5;48.3;706.8;1;1
2;01-11-2012 00:41;30;48;21.0;87;8.5;984.0;1.1;5.0;SW;987.2;6.5;8.5;0.0;0.0;1.5;48.3;706.8;1;1
3;01-11-2012 01:11;30;49;21.0;88;8.6;983.4;1.1;3.6;NW;986.6;6.7;8.6;0.0;0.0;1.5;48.3;706.8;1;1
4;01-11-2012 01:41;30;49;21.1;89;8.8;983.0;1.1;2.5;SW;986.2;7.1;8.8;0.0;0.0;1.5;48.3;706.8;1;1
5;01-11-2012 02:11;30;49;21.1;90;8.9;982.6;3.6;6.1;SW;985.8;7.4;8.9;0.0;0.0;1.5;48.3;706.8;1;2
6;01-11-2012 02:41;30;49;21.2;90;9.0;982.2;1.1;3.6;NW;985.4;7.5;9.0;0.0;0.0;1.5;48.3;706.8;1;1
7;01-11-2012 03:11;30;49;21.2;91;8.9;981.4;2.5;5.0;NW;984.6;7.5;8.9;0.0;0.0;1.5;48.3;706.8;1;1
8;01-11-2012 03:41;30;48;21.2;91;8.8;980.8;0.0;2.5;SE;984.0;7.4;8.8;0.0;0.0;1.5;48.3;706.8;0;1
9;01-11-2012 04:11;30;48;21.1;92;8.9;980.1;1.1;3.6;N;983.3;7.7;8.9;0.0;0.0;1.5;48.0;706.8;1;1
10;01-11-2012 04:41;30;48;21.1;92;8.9;979.5;2.5;5.0;W;982.7;7.7;8.9;0.0;0.0;1.5;48.0;706.8;1;1
11;01-11-2012 05:11;30;49;21.1;90;9.0;978.9;2.5;6.1;SW;982.1;7.5;9.0;0.0;0.0;1.5;48.0;706.8;1;2
12;01-11-2012 05:41;30;48;21.3;90;9.4;978.6;2.5;6.1;NWW;981.8;7.9;9.4;0.0;0.0;1.5;48.0;706.8;1;2
13;01-11-2012 06:11;30;48;21.4;89;9.8;978.4;3.6;6.1;W;981.6;8.1;9.8;0.0;0.0;1.5;48.0;706.8;1;2
14;01-11-2012 06:41;30;48;21.2;91;9.7;978.0;3.6;6.1;NW;981.2;8.3;9.7;0.9;0.9;2.4;48.9;707.7;1;2
15;01-11-2012 07:11;30;48;21.1;93;10.1;977.7;3.6;6.1;SW;980.9;9.0;10.1;0.9;0.9;2.4;48.9;707.7;1;2
16;01-11-2012 07:41;30;49;21.1;93;10.6;977.8;5.0;7.2;---;981.0;9.5;10.6;0.3;1.2;2.7;49.2;708.0;1;2
17;01-11-2012 08:11;30;49;21.1;92;10.7;978.0;5.0;9.7;NW;981.2;9.5;10.7;0.3;1.2;2.7;49.2;708.0;1;2
18;01-11-2012 08:41;30;50;21.1;93;10.4;978.4;2.5;5.0;SW;981.6;9.3;10.4;0.9;2.1;3.6;50.1;708.9;1;1
19;01-11-2012 09:11;30;50;21.3;94;10.5;978.4;1.1;2.5;S;981.6;9.6;10.5;1.2;2.4;3.9;50.4;709.2;1;1
20;01-11-2012 09:41;30;51;21.3;94;10.6;978.7;1.1;2.5;SW;981.9;9.7;10.6;0.6;2.7;4.2;50.7;709.5;1;1
21;01-11-2012 10:11;30;52;21.4;93;10.8;978.8;2.5;5.0;NW;982.0;9.7;10.8;0.3;2.7;4.2;50.7;709.5;1;1
22;01-11-2012 10:41;30;50;21.4;89;10.8;979.0;2.5;5.0;SW;982.2;9.1;10.8;0.0;2.7;4.2;50.7;709.5;1;1
23;01-11-2012 11:11;30;52;21.3;85;11.5;979.0;0.0;1.1;W;982.2;9.1;11.5;0.0;2.7;4.2;50.7;709.5;0;1
24;01-11-2012 11:41;30;50;21.1;79;11.7;979.4;1.1;3.6;SW;982.6;8.2;11.7;0.0;2.7;4.2;50.7;709.5;1;1
25;01-11-2012 12:11;30;52;21.2;73;12.2;979.6;1.1;3.6;N;982.8;7.5;12.2;0.0;2.7;4.2;50.7;709.5;1;1
26;01-11-2012 12:41;30;52;21.1;65;13.0;979.5;1.1;5.0;N;982.7;6.6;13.0;0.0;2.7;4.2;50.7;709.5;1;1
27;01-11-2012 13:11;30;49;21.1;66;12.4;979.9;1.1;2.5;W;983.1;6.2;12.4;0.0;2.7;4.2;50.7;709.5;1;1
28;01-11-2012 13:41;30;51;21.1;59;14.4;979.9;3.6;6.1;NW;983.1;6.5;14.4;0.0;2.7;4.2;50.7;709.5;1;2
29;01-11-2012 14:11;30;53;21.3;53;13.6;980.2;5.0;9.7;S;983.4;4.2;13.6;0.0;2.7;4.2;50.7;709.5;1;2
30;01-11-2012 14:41;30;54;21.3;56;13.2;980.6;3.6;6.1;SW;983.8;4.6;13.2;0.0;2.7;4.2;50.7;709.5;1;2
31;01-11-2012 15:11;30;52;21.2;55;13.1;980.8;3.6;6.1;SE;984.0;4.3;13.1;0.0;2.7;4.2;50.7;709.5;1;2
32;01-11-2012 15:41;30;52;21.1;53;12.5;981.3;5.0;9.7;SW;984.5;3.2;12.5;0.0;2.7;4.2;50.7;709.5;1;2
33;01-11-2012 16:11;30;52;21.2;57;12.3;981.6;1.1;5.0;E;984.8;4.0;12.3;0.0;2.7;4.2;50.7;709.5;1;1
34;01-11-2012 16:41;30;52;21.4;55;11.8;981.9;2.5;6.1;S;985.1;3.1;11.8;0.0;2.7;4.2;50.7;709.5;1;2
35;01-11-2012 17:11;30;48;21.5;60;10.6;982.5;1.1;3.6;S;985.7;3.2;10.6;0.0;2.7;4.2;50.7;709.5;1;1
36;01-11-2012 17:41;30;44;21.5;66;9.8;983.2;1.1;3.6;SW;986.4;3.8;9.8;0.0;2.7;4.2;50.7;709.5;1;1
37;01-11-2012 18:11;30;46;21.5;72;8.9;984.0;3.6;7.2;NE;987.2;4.1;8.9;0.0;2.7;4.2;50.7;709.5;1;2
38;01-11-2012 18:41;30;47;21.5;76;8.6;984.5;2.5;6.1;S;987.7;4.6;8.6;0.0;2.7;4.2;50.7;709.5;1;2
39;01-11-2012 19:11;30;48;21.7;---;---;985.1;---;---;---;988.3;---;---;0.0;2.7;4.2;50.7;709.5;---;---
40;01-11-2012 19:41;30;52;21.7;79;8.7;985.6;2.5;6.1;S;988.8;5.3;8.7;0.0;2.7;4.2;50.7;709.5;1;2
41;01-11-2012 20:11;30;52;21.7;85;8.1;986.2;0.0;2.5;N;989.4;5.7;8.1;0.3;3.0;4.5;51.0;709.8;0;1
42;01-11-2012 20:41;30;52;21.8;86;7.6;986.7;0.0;1.1;SEE;989.9;5.4;7.6;0.3;3.0;4.5;51.0;709.8;0;1
43;01-11-2012 21:11;30;50;21.8;85;7.3;987.1;0.0;1.1;N;990.3;5.0;7.3;0.0;3.0;4.5;51.0;709.8;0;1
44;01-11-2012 21:41;30;52;21.7;86;7.0;987.6;0.0;2.5;N;990.8;4.8;7.0;0.0;3.0;4.5;51.0;709.8;0;1
45;01-11-2012 22:11;30;52;21.7;86;6.9;988.2;1.1;2.5;W;991.4;4.7;6.9;0.0;3.0;4.5;51.0;709.8;1;1
46;01-11-2012 22:41;30;53;21.6;85;6.9;989.0;1.1;3.6;N;992.2;4.6;6.9;0.0;3.0;4.5;51.0;709.8;1;1
47;01-11-2012 23:11;30;48;21.5;84;6.6;989.4;1.1;2.5;SE;992.6;4.1;6.6;0.0;3.0;4.5;51.0;709.8;1;1
48;01-11-2012 23:41;30;47;21.1;84;6.7;989.9;1.1;3.6;SW;993.1;4.2;6.7;0.0;3.0;4.5;51.0;709.8;1;1
49;02-11-2012 00:11;30;48;21.0;84;6.5;990.1;1.1;3.6;W;993.3;4.0;6.5;0.0;3.0;4.5;51.0;709.8;1;1
50;02-11-2012 00:41;30;48;21.0;85;6.4;990.6;2.5;3.6;W;993.8;4.1;6.4;0.0;3.0;4.5;51.0;709.8;1;1
51;02-11-2012 01:11;30;48;21.1;86;6.2;990.8;1.1;2.5;SW;994.0;4.0;6.2;0.0;3.0;4.5;51.0;709.8;1;1
52;02-11-2012 01:41;30;48;21.1;88;5.9;991.5;2.5;5.0;W;994.7;4.1;5.9;0.0;3.0;4.5;51.0;709.8;1;1
53;02-11-2012 02:11;30;48;21.2;88;5.7;991.8;0.0;1.1;E;995.0;3.9;5.7;0.0;3.0;4.5;51.0;709.8;0;1
54;02-11-2012 02:41;30;48;21.3;87;5.9;992.4;1.1;3.6;NW;995.6;3.9;5.9;0.0;3.0;4.5;51.0;709.8;1;1
55;02-11-2012 03:11;30;47;21.3;87;5.9;992.7;2.5;3.6;NW;995.9;3.9;5.9;0.0;3.0;4.5;51.0;709.8;1;1
56;02-11-2012 03:41;30;47;21.3;88;5.7;993.0;3.6;5.0;SW;996.2;3.9;5.7;0.0;3.0;4.5;51.0;709.8;1;1
57;02-11-2012 04:11;30;46;21.2;88;5.7;992.8;2.5;6.1;SW;996.0;3.9;5.7;0.0;3.0;4.5;51.0;709.8;1;2
58;02-11-2012 04:41;30;45;21.1;88;5.6;992.9;3.6;11.2;W;996.1;3.8;5.6;0.0;3.0;4.5;51.0;709.8;1;2
59;02-11-2012 05:11;30;45;21.0;88;5.4;993.0;1.1;2.5;NW;996.2;3.6;5.4;0.0;3.0;4.5;51.0;709.8;1;1
60;02-11-2012 05:41;30;46;20.9;88;5.5;993.3;2.5;5.0;SE;996.5;3.7;5.5;0.0;3.0;4.5;51.0;709.8;1;1
61;02-11-2012 06:11;30;46;20.9;88;5.5;993.2;1.1;3.6;SW;996.4;3.7;5.5;0.0;3.0;4.5;51.0;709.8;1;1
62;02-11-2012 06:41;30;46;20.9;89;5.5;993.5;2.5;5.0;W;996.7;3.8;5.5;0.0;2.1;4.5;51.0;709.8;1;1
63;02-11-2012 07:11;30;45;21.0;89;5.3;993.5;2.5;3.6;SW;996.7;3.6;5.3;0.0;2.1;4.5;51.0;709.8;1;1
64;02-11-2012 07:41;30;45;21.1;91;5.4;993.7;2.5;5.0;NE;996.9;4.1;5.4;0.0;1.8;4.5;51.0;709.8;1;1
65;02-11-2012 08:11;30;45;21.1;92;5.5;993.8;2.5;5.0;NW;997.0;4.3;5.5;0.0;1.8;4.5;51.0;709.8;1;1
66;02-11-2012 08:41;30;45;21.2;92;6.2;993.9;1.1;2.5;S;997.1;5.0;6.2;0.0;0.9;4.5;51.0;709.8;1;1
67;02-11-2012 09:11;30;45;21.3;90;6.8;993.7;1.1;3.6;W;996.9;5.3;6.8;0.0;0.6;4.5;51.0;709.8;1;1
68;02-11-2012 09:41;30;45;21.3;87;7.5;993.6;2.5;3.6;SW;996.8;5.5;7.5;0.0;0.3;4.5;51.0;709.8;1;1
69;02-11-2012 10:11;30;45;21.2;86;8.1;993.7;1.1;3.6;NW;996.9;5.9;8.1;0.0;0.3;4.5;51.0;709.8;1;1
70;02-11-2012 10:41;30;45;21.2;86;8.5;993.7;0.0;1.1;SE;996.9;6.3;8.5;0.0;0.3;4.5;51.0;709.8;0;1
71;02-11-2012 11:11;30;45;21.1;88;8.6;993.4;0.0;1.1;W;996.6;6.7;8.6;0.0;0.3;4.5;51.0;709.8;0;1
72;02-11-2012 11:41;30;45;21.1;89;8.9;993.3;6.1;8.6;SW;996.5;7.2;8.9;0.3;0.6;4.8;51.3;710.1;2;2
73;02-11-2012 12:11;30;45;21.0;89;8.9;992.6;2.5;6.1;S;995.8;7.2;8.9;0.3;0.6;4.8;51.3;710.1;1;2
74;02-11-2012 12:41;30;47;21.0;93;8.9;992.3;3.6;5.0;W;995.5;7.8;8.9;0.6;1.2;5.4;51.9;710.7;1;1
75;02-11-2012 13:11;30;48;21.1;94;8.8;991.8;2.5;5.0;SW;995.0;7.9;8.8;1.2;1.8;6.0;52.5;711.3;1;1
76;02-11-2012 13:41;30;48;21.3;94;9.3;991.4;0.0;0.0;NE;994.6;8.4;9.3;0.9;2.1;6.3;52.8;711.6;0;0
77;02-11-2012 14:11;30;52;21.4;93;10.1;991.3;1.1;2.5;SW;994.5;9.0;10.1;0.6;2.4;6.6;53.1;711.9;1;1
78;02-11-2012 14:41;30;52;21.6;91;10.2;991.0;0.0;1.1;NW;994.2;8.8;10.2;0.3;2.4;6.6;53.1;711.9;0;1
79;02-11-2012 15:11;30;53;21.7;91;11.0;990.8;1.1;3.6;NW;994.0;9.6;11.0;0.0;2.4;6.6;53.1;711.9;1;1
80;02-11-2012 15:41;30;52;21.6;---;---;991.0;---;---;---;994.2;---;---;0.0;2.4;6.6;53.1;711.9;---;---
81;02-11-2012 16:11;30;52;21.7;93;10.2;991.4;0.0;0.0;N;994.6;9.1;10.2;1.2;3.6;7.8;54.3;713.1;0;0
82;02-11-2012 16:41;30;52;21.9;94;9.6;991.9;0.0;1.1;S;995.1;8.7;9.6;1.5;3.9;8.1;54.6;713.4;0;1
83;02-11-2012 17:11;30;52;21.9;93;9.4;992.8;0.0;1.1;SW;996.0;8.3;9.4;0.3;3.9;8.1;54.6;713.4;0;1
84;02-11-2012 17:41;30;49;21.8;91;8.3;993.5;0.0;0.0;W;996.7;6.9;8.3;0.0;3.9;8.1;54.6;713.4;0;0
85;02-11-2012 18:11;30;52;21.8;---;---;994.0;---;---;---;997.2;---;---;0.0;3.9;8.1;54.6;713.4;---;---
86;02-11-2012 18:41;30;52;21.8;94;7.7;994.8;0.0;2.5;W;998.0;6.8;7.7;0.0;3.9;8.1;54.6;713.4;0;1
87;02-11-2012 19:11;30;52;21.8;93;7.8;995.2;0.0;2.5;N;998.4;6.7;7.8;0.0;3.9;8.1;54.6;713.4;0;1
88;02-11-2012 19:41;30;52;21.8;92;7.8;995.6;0.0;1.1;SW;998.8;6.6;7.8;0.0;3.9;8.1;54.6;713.4;0;1
89;02-11-2012 20:11;30;52;21.8;---;---;996.0;---;---;---;999.2;---;---;0.0;3.6;8.1;54.6;713.4;---;---
90;02-11-2012 20:41;30;52;21.8;93;7.3;996.3;0.0;1.1;SW;999.5;6.3;7.3;0.0;3.6;8.1;54.6;713.4;0;1
91;02-11-2012 21:11;30;49;21.7;---;---;996.5;---;---;---;999.7;---;---;0.0;3.6;8.1;54.6;713.4;---;---
92;02-11-2012 21:41;30;49;21.7;93;7.1;996.8;0.0;1.1;W;1000.0;6.1;7.1;0.0;3.6;8.1;54.6;713.4;0;1
93;02-11-2012 22:11;30;49;21.6;93;7.2;996.9;1.1;3.6;NW;1000.1;6.2;7.2;0.0;3.6;8.1;54.6;713.4;1;1
94;02-11-2012 22:41;30;47;21.3;92;7.4;996.9;0.0;1.1;W;1000.1;6.2;7.4;0.0;3.6;8.1;54.6;713.4;0;1
95;02-11-2012 23:11;30;48;21.2;93;7.6;996.7;0.0;0.0;W;999.9;6.6;7.6;0.0;3.6;8.1;54.6;713.4;0;0
96;02-11-2012 23:41;30;49;21.2;93;7.7;996.8;0.0;1.1;W;1000.0;6.6;7.7;0.0;3.6;8.1;54.6;713.4;0;1
97;03-11-2012 00:11;30;52;21.2;93;7.9;996.8;0.0;0.0;NW;1000.0;6.8;7.9;0.0;3.6;8.1;54.6;713.4;0;0
98;03-11-2012 00:41;30;48;21.1;93;7.9;996.6;0.0;1.1;W;999.8;6.8;7.9;0.0;3.6;8.1;54.6;713.4;0;1
99;03-11-2012 01:11;30;49;20.9;94;8.1;996.4;0.0;1.1;W;999.6;7.2;8.1;0.0;3.6;8.1;54.6;713.4;0;1
100;03-11-2012 01:41;30;49;21.0;95;8.4;996.4;0.0;0.0;NW;999.6;7.7;8.4;0.0;3.6;8.1;54.6;713.4;0;0
101;03-11-2012 02:11;30;49;21.1;94;9.0;996.1;1.1;5.0;N;999.3;8.1;9.0;0.0;3.6;8.1;54.6;713.4;1;1
102;03-11-2012 02:41;30;50;21.1;95;9.4;995.6;1.1;3.6;W;998.8;8.7;9.4;0.3;3.9;8.4;54.9;713.7;1;1
103;03-11-2012 03:11;30;50;21.2;96;9.5;995.5;1.1;3.6;W;998.7;8.9;9.5;0.9;4.5;9.0;55.5;714.3;1;1
104;03-11-2012 03:41;30;50;21.3;96;9.4;995.3;1.1;5.0;SW;998.5;8.8;9.4;0.6;4.5;9.0;55.5;714.3;1;1
105;03-11-2012 04:11;30;49;21.3;96;9.2;994.9;1.1;3.6;W;998.1;8.6;9.2;0.3;4.8;9.3;55.8;714.6;1;1
106;03-11-2012 04:41;30;49;21.2;96;9.0;994.7;0.0;2.5;W;997.9;8.4;9.0;0.6;5.1;9.6;56.1;714.9;0;1
107;03-11-2012 05:11;30;49;21.1;97;8.9;994.1;0.0;3.6;W;997.3;8.5;8.9;0.3;5.1;9.6;56.1;714.9;0;1
108;03-11-2012 05:41;30;49;21.1;97;8.8;993.9;1.1;3.6;NW;997.1;8.4;8.8;0.3;5.4;9.9;56.4;715.2;1;1
109;03-11-2012 06:11;30;49;21.0;97;8.5;993.3;7.2;9.7;W;996.5;8.1;7.3;0.6;5.7;10.2;56.7;715.5;2;2
110;03-11-2012 06:41;30;50;20.9;98;8.4;992.8;0.0;2.5;W;996.0;8.1;8.4;0.3;5.7;10.2;56.7;715.5;0;1
111;03-11-2012 07:11;30;50;20.9;98;8.5;993.0;0.0;1.1;SW;996.2;8.2;8.5;1.2;6.9;11.4;57.9;716.7;0;1
112;03-11-2012 07:41;30;50;21.0;99;8.9;992.0;0.0;1.1;SW;995.2;8.8;8.9;3.6;9.3;13.8;60.3;719.1;0;1
113;03-11-2012 08:11;30;52;21.0;99;9.9;991.7;1.1;5.0;NW;994.9;9.8;9.9;2.7;9.6;14.1;60.6;719.4;1;1
114;03-11-2012 08:41;30;51;21.1;98;11.5;991.6;0.0;2.5;S;994.8;11.2;11.5;0.3;9.6;14.1;60.6;719.4;0;1
115;03-11-2012 09:11;30;52;21.2;98;11.9;993.0;3.6;6.1;N;996.2;11.6;11.9;1.8;11.4;15.9;62.4;721.2;1;2
116;03-11-2012 09:41;30;52;21.3;97;10.9;993.4;1.1;2.5;NW;996.6;10.5;10.9;2.1;11.7;16.2;62.7;721.5;1;1
117;03-11-2012 10:11;30;52;21.3;97;10.8;995.1;0.0;0.0;W;998.3;10.4;10.8;0.3;11.7;16.2;62.7;721.5;0;0
118;03-11-2012 10:41;30;52;21.3;94;10.3;994.8;0.0;3.6;NW;998.0;9.4;10.3;0.0;11.7;16.2;62.7;721.5;0;1
119;03-11-2012 11:11;30;51;21.4;94;10.6;995.8;0.0;0.0;NE;999.0;9.7;10.6;0.0;11.7;16.2;62.7;721.5;0;0
120;03-11-2012 11:41;30;52;21.2;90;12.1;996.0;0.0;1.1;N;999.2;10.5;12.1;0.0;11.4;16.2;62.7;721.5;0;1
121;03-11-2012 12:11;30;52;21.2;81;12.6;996.4;2.5;3.6;SW;999.6;9.4;12.6;0.0;11.4;16.2;62.7;721.5;1;1
122;03-11-2012 12:41;30;51;21.1;74;14.0;996.4;1.1;3.6;S;999.6;9.5;14.0;0.0;10.8;16.2;62.7;721.5;1;1
123;03-11-2012 13:11;30;52;21.1;73;13.2;996.2;0.0;0.0;NE;999.4;8.5;13.2;0.0;10.2;16.2;62.7;721.5;0;0
124;03-11-2012 13:41;30;52;21.1;65;14.2;996.2;3.6;6.1;NE;999.4;7.7;14.2;0.0;9.9;16.2;62.7;721.5;1;2
125;03-11-2012 14:11;30;49;21.2;64;13.7;996.4;1.1;5.0;W;999.6;7.0;13.7;0.0;9.6;16.2;62.7;721.5;1;1
126;03-11-2012 14:41;30;49;21.3;59;14.5;996.5;0.0;2.5;W;999.7;6.6;14.5;0.0;9.6;16.2;62.7;721.5;0;1
127;03-11-2012 15:11;30;48;21.3;55;14.3;996.5;0.0;0.0;E;999.7;5.4;14.3;0.0;9.6;16.2;62.7;721.5;0;0
128;03-11-2012 15:41;30;48;21.2;58;13.6;996.9;0.0;2.5;W;1000.1;5.5;13.6;0.0;9.6;16.2;62.7;721.5;0;1
129;03-11-2012 16:11;30;48;21.1;59;13.1;996.9;1.1;3.6;SW;1000.1;5.3;13.1;0.0;8.4;16.2;62.7;721.5;1;1
130;03-11-2012 16:41;30;49;21.1;64;12.1;997.0;0.0;1.1;NW;1000.2;5.5;12.1;0.0;8.1;16.2;62.7;721.5;0;1
131;03-11-2012 17:11;30;49;21.1;---;---;997.1;---;---;---;1000.3;---;---;0.0;8.1;16.2;62.7;721.5;---;---
132;03-11-2012 17:41;30;50;21.1;72;10.9;997.1;0.0;0.0;W;1000.3;6.1;10.9;0.0;8.1;16.2;62.7;721.5;0;0
133;03-11-2012 18:11;30;52;21.3;---;---;997.4;---;---;---;1000.6;---;---;0.0;8.1;16.2;62.7;721.5;---;---
134;03-11-2012 18:41;30;52;21.4;75;10.1;997.5;0.0;0.0;NW;1000.7;5.9;10.1;0.0;8.1;16.2;62.7;721.5;0;0
135;03-11-2012 19:11;30;52;21.5;---;---;997.9;---;---;---;1001.1;---;---;0.0;8.1;16.2;62.7;721.5;---;---
136;03-11-2012 19:41;30;52;21.5;---;---;998.0;---;---;---;1001.2;---;---;0.0;8.1;16.2;62.7;721.5;---;---
137;03-11-2012 20:11;30;49;21.4;84;9.3;998.1;0.0;2.5;SW;1001.3;6.7;9.3;0.0;8.1;16.2;62.7;721.5;0;1
138;03-11-2012 20:41;30;49;21.4;---;---;998.2;---;---;---;1001.4;---;---;0.0;8.1;16.2;62.7;721.5;---;---
139;03-11-2012 21:11;30;49;21.2;88;8.4;998.4;1.1;3.6;SW;1001.6;6.5;8.4;0.0;8.1;16.2;62.7;721.5;1;1
140;03-11-2012 21:41;30;49;21.1;90;8.2;998.3;0.0;1.1;W;1001.5;6.7;8.2;0.0;8.1;16.2;62.7;721.5;0;1
141;03-11-2012 22:11;30;49;21.2;91;8.0;998.6;1.1;3.6;W;1001.8;6.6;8.0;0.0;8.1;16.2;62.7;721.5;1;1
142;03-11-2012 22:41;30;49;21.2;93;7.8;998.6;0.0;1.1;SW;1001.8;6.7;7.8;0.0;8.1;16.2;62.7;721.5;0;1
143;03-11-2012 23:11;30;50;21.2;93;7.8;998.8;0.0;2.5;SW;1002.0;6.7;7.8;0.0;8.1;16.2;62.7;721.5;0;1
144;03-11-2012 23:41;30;49;21.1;94;7.5;998.8;1.1;3.6;SW;1002.0;6.6;7.5;0.0;8.1;16.2;62.7;721.5;1;1
145;04-11-2012 00:11;30;49;21.0;95;7.3;998.8;0.0;0.0;SW;1002.0;6.6;7.3;0.0;8.1;16.2;62.7;721.5;0;0
146;04-11-2012 00:41;30;50;21.0;96;6.8;998.6;0.0;1.1;W;1001.8;6.2;6.8;0.0;8.1;16.2;62.7;721.5;0;1
147;04-11-2012 01:11;30;52;21.1;96;6.4;998.6;0.0;1.1;SW;1001.8;5.8;6.4;0.0;8.1;16.2;62.7;721.5;0;1
148;04-11-2012 01:41;30;50;21.2;96;6.6;998.6;0.0;1.1;NW;1001.8;6.0;6.6;0.0;8.1;16.2;62.7;721.5;0;1
149;04-11-2012 02:11;30;52;21.3;97;6.6;998.5;0.0;1.1;W;1001.7;6.2;6.6;0.0;8.1;16.2;62.7;721.5;0;1
150;04-11-2012 02:41;30;49;21.4;97;6.7;998.5;0.0;0.0;SW;1001.7;6.3;6.7;0.0;7.8;16.2;62.7;721.5;0;0
151;04-11-2012 03:11;30;49;21.4;98;6.6;998.0;0.0;1.1;N;1001.2;6.3;6.6;0.0;7.2;16.2;62.7;721.5;0;1
152;04-11-2012 03:41;30;48;21.4;98;6.7;997.6;1.1;5.0;W;1000.8;6.4;6.7;0.0;7.2;16.2;62.7;721.5;1;1
153;04-11-2012 04:11;30;48;21.3;98;6.8;997.3;0.0;1.1;NW;1000.5;6.5;6.8;0.0;6.9;16.2;62.7;721.5;0;1
154;04-11-2012 04:41;30;47;21.2;97;7.0;996.9;0.0;1.1;NW;1000.1;6.6;7.0;0.0;6.6;16.2;62.7;721.5;0;1
155;04-11-2012 05:11;30;47;21.1;98;6.8;996.8;2.5;3.6;NW;1000.0;6.5;6.8;0.0;6.6;16.2;62.7;721.5;1;1
156;04-11-2012 05:41;30;47;21.1;98;6.5;996.4;1.1;2.5;SW;999.6;6.2;6.5;0.0;6.3;16.2;62.7;721.5;1;1
157;04-11-2012 06:11;30;47;21.0;98;6.4;996.0;2.5;3.6;SW;999.2;6.1;6.4;0.0;6.0;16.2;62.7;721.5;1;1
158;04-11-2012 06:41;30;48;20.9;98;6.7;995.3;0.0;0.0;W;998.5;6.4;6.7;0.0;6.0;16.2;62.7;721.5;0;0
159;04-11-2012 07:11;30;49;20.9;97;7.3;994.9;1.1;2.5;NE;998.1;6.9;7.3;0.0;4.8;16.2;62.7;721.5;1;1
160;04-11-2012 07:41;30;48;21.0;97;7.8;994.3;0.0;1.1;S;997.5;7.4;7.8;0.0;2.4;16.2;62.7;721.5;0;1
161;04-11-2012 08:11;30;48;21.1;99;8.4;993.8;0.0;2.5;NW;997.0;8.3;8.4;0.0;2.1;16.2;62.7;721.5;0;1
162;04-11-2012 08:41;30;49;21.2;99;8.9;993.5;5.0;8.6;NE;996.7;8.8;8.9;0.0;2.1;16.2;62.7;721.5;1;2
163;04-11-2012 09:11;30;49;21.3;98;9.3;993.2;2.5;7.2;NE;996.4;9.0;9.3;0.0;0.3;16.2;62.7;721.5;1;2
164;04-11-2012 09:41;30;49;21.4;95;9.9;992.7;3.6;7.2;SW;995.9;9.1;9.9;0.0;0.0;16.2;62.7;721.5;1;2
165;04-11-2012 10:11;30;49;21.4;93;10.2;992.5;3.6;7.2;NW;995.7;9.1;10.2;0.0;0.0;16.2;62.7;721.5;1;2
166;04-11-2012 10:41;30;49;21.4;---;---;992.2;---;---;---;995.4;---;---;0.0;0.0;16.2;62.7;721.5;---;---
167;04-11-2012 11:11;30;49;21.3;88;11.3;992.1;7.2;14.8;SW;995.3;9.4;10.2;0.0;0.0;16.2;62.7;721.5;2;3
168;04-11-2012 11:41;30;52;21.4;---;---;992.1;---;---;---;995.3;---;---;0.0;0.0;16.2;62.7;721.5;---;---
169;04-11-2012 12:11;30;52;21.3;86;11.9;992.0;1.1;3.6;NE;995.2;9.6;11.9;0.3;0.3;16.5;63.0;721.8;1;1
170;04-11-2012 12:41;30;52;21.5;---;---;992.2;---;---;---;995.4;---;---;0.3;0.3;16.5;63.0;721.8;---;---
171;04-11-2012 13:11;30;52;21.7;---;---;992.6;---;---;---;995.8;---;---;0.0;0.3;16.5;63.0;721.8;---;---
172;04-11-2012 13:41;30;52;21.9;73;12.5;993.0;2.5;5.0;E;996.2;7.8;12.5;0.0;0.3;16.5;63.0;721.8;1;1
173;04-11-2012 14:11;30;51;22.1;67;12.6;993.3;2.5;5.0;W;996.5;6.7;12.6;0.0;0.3;16.5;63.0;721.8;1;1
174;04-11-2012 14:41;30;51;22.1;65;13.8;993.3;3.6;7.2;NW;996.5;7.4;13.8;0.0;0.3;16.5;63.0;721.8;1;2
175;04-11-2012 15:11;30;49;22.1;61;13.2;993.4;2.5;6.1;SSW;996.6;5.9;13.2;0.0;0.3;16.5;63.0;721.8;1;2
176;04-11-2012 15:41;30;46;22.0;64;12.0;993.4;2.5;8.6;W;996.6;5.4;12.0;0.0;0.3;16.5;63.0;721.8;1;2
177;04-11-2012 16:11;30;48;21.9;64;11.8;993.7;1.1;3.6;S;996.9;5.2;11.8;0.0;0.3;16.5;63.0;721.8;1;1
178;04-11-2012 16:41;30;47;21.9;60;11.5;993.6;1.1;5.0;W;996.8;4.0;11.5;0.0;0.3;16.5;63.0;721.8;1;1
179;04-11-2012 17:11;30;44;21.8;58;11.0;994.0;1.1;5.0;SW;997.2;3.1;11.0;0.0;0.3;16.5;63.0;721.8;1;1
180;04-11-2012 17:41;30;46;21.9;65;10.3;994.2;1.1;1.1;W;997.4;4.0;10.3;0.0;0.3;16.5;63.0;721.8;1;1
181;04-11-2012 18:11;30;44;22.0;66;10.1;994.4;1.1;5.0;E;997.6;4.0;10.1;0.0;0.3;16.5;63.0;721.8;1;1
182;04-11-2012 18:41;30;43;21.9;69;9.7;994.4;3.6;5.0;W;997.6;4.3;9.7;0.0;0.3;16.5;63.0;721.8;1;1
183;04-11-2012 19:11;30;43;21.8;74;9.2;994.4;2.5;5.0;SW;997.6;4.8;9.2;0.0;0.3;16.5;63.0;721.8;1;1
184;04-11-2012 19:41;30;46;21.9;---;---;994.5;---;---;---;997.7;---;---;0.0;0.3;16.5;63.0;721.8;---;---
185;04-11-2012 20:11;30;51;22.2;---;---;994.4;---;---;---;997.6;---;---;0.0;0.3;16.5;63.0;721.8;---;---
186;04-11-2012 20:41;30;47;22.0;77;8.4;994.4;1.1;3.6;NW;997.6;4.6;8.4;0.0;0.3;16.5;63.0;721.8;1;1
187;04-11-2012 21:11;30;47;21.9;79;8.1;994.6;2.5;5.0;NE;997.8;4.7;8.1;0.0;0.3;16.5;63.0;721.8;1;1
188;04-11-2012 21:41;30;47;21.8;80;8.1;994.9;0.0;0.0;W;998.1;4.9;8.1;0.0;0.3;16.5;63.0;721.8;0;0
189;04-11-2012 22:11;30;48;21.7;81;8.0;994.9;1.1;3.6;NW;998.1;4.9;8.0;0.0;0.3;16.5;63.0;721.8;1;1
190;04-11-2012 22:41;30;49;21.6;81;8.2;994.8;0.0;1.1;W;998.0;5.1;8.2;0.0;0.3;16.5;63.0;721.8;0;1
191;04-11-2012 23:11;30;46;21.2;82;8.0;994.9;1.1;3.6;---;998.1;5.1;8.0;0.0;0.3;16.5;63.0;721.8;1;1
192;04-11-2012 23:41;30;46;21.1;83;7.6;995.0;1.1;3.6;NW;998.2;4.9;7.6;0.0;0.3;16.5;63.0;721.8;1;1
193;05-11-2012 00:11;30;47;21.1;84;7.2;995.4;1.1;3.6;SW;998.6;4.7;7.2;0.0;0.3;15.9;63.0;721.8;1;1
194;05-11-2012 00:41;30;48;21.2;87;6.9;995.5;0.0;2.5;NE;998.7;4.9;6.9;0.0;0.3;15.9;63.0;721.8;0;1
195;05-11-2012 01:11;30;48;21.4;87;6.8;995.5;1.1;5.0;NW;998.7;4.8;6.8;0.0;0.3;15.6;63.0;721.8;1;1
196;05-11-2012 01:41;30;48;21.5;88;6.7;995.7;1.1;2.5;W;998.9;4.9;6.7;0.0;0.3;15.3;63.0;721.8;1;1
197;05-11-2012 02:11;30;48;21.5;88;6.8;995.6;2.5;5.0;NW;998.8;5.0;6.8;0.0;0.3;15.0;63.0;721.8;1;1
198;05-11-2012 02:41;30;48;21.4;87;7.0;995.7;2.5;5.0;S;998.9;5.0;7.0;0.0;0.3;15.0;63.0;721.8;1;1
199;05-11-2012 03:11;30;47;21.4;88;7.1;995.9;1.1;3.6;SW;999.1;5.3;7.1;0.0;0.3;15.0;63.0;721.8;1;1
200;05-11-2012 03:41;30;47;21.3;89;7.1;995.9;0.0;0.0;SW;999.1;5.4;7.1;0.0;0.3;15.0;63.0;721.8;0;0
201;05-11-2012 04:11;30;47;21.2;90;7.1;995.7;0.0;1.1;E;998.9;5.6;7.1;0.0;0.3;15.0;63.0;721.8;0;1
202;05-11-2012 04:41;30;47;21.1;91;7.2;995.8;1.1;2.5;W;999.0;5.8;7.2;0.0;0.3;15.0;63.0;721.8;1;1
203;05-11-2012 05:11;30;47;21.1;91;7.2;995.8;0.0;1.1;NW;999.0;5.8;7.2;0.0;0.3;15.0;63.0;721.8;0;1
204;05-11-2012 05:41;30;47;21.0;91;7.3;995.9;0.0;1.1;NW;999.1;5.9;7.3;0.0;0.3;15.0;63.0;721.8;0;1
205;05-11-2012 06:11;30;48;20.9;91;7.4;996.1;1.1;5.0;S;999.3;6.0;7.4;0.0;0.3;15.0;63.0;721.8;1;1
206;05-11-2012 06:41;30;48;21.0;91;7.6;996.2;0.0;1.1;W;999.4;6.2;7.6;0.0;0.3;15.0;63.0;721.8;0;1
207;05-11-2012 07:11;30;48;21.1;91;7.6;996.5;0.0;2.5;SW;999.7;6.2;7.6;0.0;0.3;15.0;63.0;721.8;0;1
208;05-11-2012 07:41;30;49;21.2;91;7.6;996.7;0.0;0.0;W;999.9;6.2;7.6;0.0;0.3;15.0;63.0;721.8;0;0
209;05-11-2012 08:11;30;47;21.1;90;7.7;997.1;0.0;0.0;SW;1000.3;6.2;7.7;0.0;0.3;15.0;63.0;721.8;0;0
210;05-11-2012 08:41;30;47;21.1;90;7.8;997.5;1.1;2.5;W;1000.7;6.3;7.8;0.0;0.3;15.0;63.0;721.8;1;1
211;05-11-2012 09:11;30;47;21.1;89;8.0;997.8;0.0;2.5;SW;1001.0;6.3;8.0;0.0;0.3;15.0;63.0;721.8;0;1
212;05-11-2012 09:41;30;47;21.1;88;8.9;998.2;1.1;2.5;SW;1001.4;7.0;8.9;0.0;0.3;15.0;63.0;721.8;1;1
213;05-11-2012 10:11;30;47;21.1;85;9.6;998.2;0.0;0.0;SW;1001.4;7.2;9.6;0.0;0.3;15.0;63.0;721.8;0;0
214;05-11-2012 10:41;30;48;21.1;84;9.8;998.7;0.0;2.5;S;1001.9;7.2;9.8;0.0;0.3;15.0;63.0;721.8;0;1
215;05-11-2012 11:11;30;47;21.0;83;10.0;998.9;0.0;0.0;E;1002.1;7.3;10.0;0.0;0.3;15.0;63.0;721.8;0;0
216;05-11-2012 11:41;30;48;21.0;83;10.6;999.4;1.1;2.5;N;1002.6;7.8;10.6;0.0;0.3;15.0;63.0;721.8;1;1
217;05-11-2012 12:11;30;49;20.9;---;---;999.4;---;---;---;1002.6;---;---;0.3;0.3;15.3;63.3;722.1;---;---
218;05-11-2012 12:41;30;48;21.0;79;11.2;999.3;0.0;0.0;W;1002.5;7.7;11.2;0.3;0.3;15.3;63.3;722.1;0;0
219;05-11-2012 13:11;30;49;21.1;74;12.3;999.6;1.1;3.6;NW;1002.8;7.8;12.3;0.0;0.3;15.3;63.3;722.1;1;1
220;05-11-2012 13:41;30;49;21.2;65;14.2;999.7;0.0;2.5;NE;1002.9;7.7;14.2;0.0;0.3;15.3;63.3;722.1;0;1
221;05-11-2012 14:11;30;49;21.4;---;---;1000.1;---;---;---;1003.3;---;---;0.0;0.3;15.3;63.0;722.1;---;---
222;05-11-2012 14:41;30;49;21.4;61;14.3;1000.1;0.0;2.5;NW;1003.3;6.9;14.3;0.0;0.3;15.3;63.0;722.1;0;1
223;05-11-2012 15:11;30;49;21.4;77;10.8;1000.8;1.1;3.6;N;1004.0;6.9;10.8;1.2;1.5;16.5;64.2;723.3;1;1
224;05-11-2012 15:41;30;49;21.4;87;9.3;1001.3;2.5;3.6;SE;1004.5;7.3;9.3;2.1;2.4;17.4;64.8;724.2;1;1
225;05-11-2012 16:11;30;48;21.3;---;---;1001.8;---;---;---;1005.0;---;---;1.8;3.3;18.3;65.7;725.1;---;---
226;05-11-2012 16:41;30;48;21.2;90;8.8;1001.9;0.0;0.0;W;1005.1;7.3;8.8;1.2;3.6;18.6;66.0;725.4;0;0
227;05-11-2012 17:11;30;48;21.1;92;8.6;1002.5;0.0;1.1;S;1005.7;7.4;8.6;0.6;3.9;18.9;66.0;725.7;0;1
228;05-11-2012 17:41;30;48;21.1;93;8.4;1002.9;0.0;0.0;W;1006.1;7.3;8.4;0.9;4.5;19.5;66.6;726.3;0;0
229;05-11-2012 18:11;30;48;21.0;93;8.3;1003.4;0.0;0.0;W;1006.6;7.2;8.3;0.6;4.5;19.5;66.6;726.3;0;0
230;05-11-2012 18:41;30;52;21.1;---;---;1004.1;---;---;---;1007.3;---;---;0.0;4.5;19.5;66.6;726.3;---;---
231;05-11-2012 19:11;30;52;21.5;---;---;1004.5;---;---;---;1007.7;---;---;0.0;4.5;19.5;66.0;726.3;---;---
232;05-11-2012 19:41;30;52;21.8;95;6.5;1005.3;0.0;0.0;SW;1008.5;5.8;6.5;0.0;4.5;19.5;65.7;726.3;0;0
233;05-11-2012 20:11;30;51;22.0;---;---;1005.9;---;---;---;1009.1;---;---;0.0;4.5;19.5;65.7;726.3;---;---
234;05-11-2012 20:41;30;47;22.0;---;---;1006.4;---;---;---;1009.6;---;---;0.0;4.5;19.5;65.7;726.3;---;---
235;05-11-2012 21:11;30;51;22.1;---;---;1006.9;---;---;---;1010.1;---;---;0.9;5.4;20.4;66.6;727.2;---;---
236;05-11-2012 21:41;30;51;22.2;96;7.1;1007.2;0.0;0.0;W;1010.4;6.5;7.1;1.5;6.0;21.0;67.2;727.8;0;0
237;05-11-2012 22:11;30;47;22.0;97;6.9;1007.5;0.0;0.0;NE;1010.7;6.5;6.9;0.9;6.3;21.3;67.2;728.1;0;0
238;05-11-2012 22:41;30;47;21.9;97;6.7;1007.7;0.0;0.0;W;1010.9;6.3;6.7;0.3;6.3;21.3;67.2;728.1;0;0